TimeMST,TemperatureF,Dew PointF,Humidity,Sea Level PressureIn,VisibilityMPH,Wind Direction,Wind SpeedMPH,Gust SpeedMPH,PrecipitationIn,Events,Conditions,WindDirDegrees,DateUTC
12:15 AM,57.2,30.0,36,30.17,10.0,Calm,Calm,-,N/A,,Clear,0,2012-11-04 06:15:00
12:35 AM,53.6,29.5,40,30.18,10.0,Calm,Calm,-,N/A,,Clear,0,2012-11-04 06:35:00
12:55 AM,52.9,30.2,42,30.19,10.0,South,3.5,-,N/A,,Clear,190,2012-11-04 06:55:00
1:15 AM,56.7,30.6,37,30.19,10.0,SSW,4.6,-,N/A,,Clear,200,2012-11-04 07:15:00
1:35 AM,49.5,27.1,42,30.19,10.0,West,3.5,-,N/A,,Clear,280,2012-11-04 07:35:00
1:55 AM,49.3,28.4,45,30.19,10.0,WSW,4.6,-,N/A,,Clear,250,2012-11-04 07:55:00
1:15 AM,47.8,27.7,46,30.20,10.0,Calm,Calm,-,N/A,,Clear,0,2012-11-04 08:15:00
1:35 AM,48.6,29.7,48,30.20,10.0,Calm,Calm,-,N/A,,Clear,0,2012-11-04 08:35:00
1:55 AM,48.9,30.4,49,30.20,10.0,Calm,Calm,-,N/A,,Clear,0,2012-11-04 08:55:00
2:15 AM,46.9,29.3,50,30.20,10.0,SW,3.5,-,N/A,,Clear,230,2012-11-04 09:15:00
2:35 AM,46.9,30.7,53,30.20,10.0,West,4.6,-,N/A,,Clear,270,2012-11-04 09:35:00
2:55 AM,48.2,32.0,54,30.20,10.0,West,5.8,-,N/A,,Clear,280,2012-11-04 09:55:00
3:15 AM,47.3,31.1,53,30.20,10.0,WNW,4.6,-,N/A,,Clear,300,2012-11-04 10:15:00
3:35 AM,46.4,31.5,56,30.20,10.0,West,3.5,-,N/A,,Clear,280,2012-11-04 10:35:00
3:55 AM,46.4,32.2,58,30.20,10.0,NE,4.6,-,N/A,,Clear,50,2012-11-04 10:55:00
4:15 AM,48.4,33.4,56,30.20,10.0,Calm,Calm,-,N/A,,Clear,0,2012-11-04 11:15:00
4:35 AM,46.4,32.0,57,30.21,10.0,Calm,Calm,-,N/A,,Clear,0,2012-11-04 11:35:00
4:55 AM,44.8,31.1,59,30.21,10.0,Calm,Calm,-,N/A,,Clear,0,2012-11-04 11:55:00
5:15 AM,45.1,31.3,58,30.21,10.0,WNW,4.6,-,N/A,,Clear,300,2012-11-04 12:15:00
5:35 AM,43.9,30.0,58,30.21,10.0,WNW,4.6,-,N/A,,Clear,290,2012-11-04 12:35:00
5:55 AM,43.0,28.6,57,30.22,10.0,NNW,8.1,-,N/A,,Clear,330,2012-11-04 12:55:00
6:15 AM,46.0,29.3,52,30.22,10.0,NNW,6.9,-,N/A,,Clear,330,2012-11-04 13:15:00
6:35 AM,47.5,28.4,48,30.23,10.0,NW,6.9,-,N/A,,Clear,320,2012-11-04 13:35:00
6:55 AM,48.4,28.0,45,30.23,10.0,North,3.5,-,N/A,,Clear,360,2012-11-04 13:55:00
7:15 AM,49.5,30.7,49,30.24,10.0,Calm,Calm,-,N/A,,Clear,0,2012-11-04 14:15:00
7:35 AM,52.9,28.9,40,30.24,10.0,Calm,Calm,-,N/A,,Clear,0,2012-11-04 14:35:00
7:55 AM,55.8,29.7,37,30.25,10.0,Calm,Calm,-,N/A,,Clear,0,2012-11-04 14:55:00
8:15 AM,58.6,31.6,36,30.25,10.0,Calm,Calm,-,N/A,,Clear,0,2012-11-04 15:15:00
8:35 AM,61.7,30.4,31,30.25,10.0,Calm,Calm,-,N/A,,Clear,0,2012-11-04 15:35:00
8:55 AM,63.9,30.6,29,30.26,10.0,NNW,5.8,-,N/A,,Clear,330,2012-11-04 15:55:00
9:15 AM,62.6,31.1,31,30.27,10.0,Calm,Calm,-,N/A,,Clear,0,2012-11-04 16:15:00
9:35 AM,63.9,30.7,29,30.27,10.0,NE,3.5,-,N/A,,Clear,40,2012-11-04 16:35:00
9:55 AM,65.5,30.2,27,30.27,10.0,NE,3.5,-,N/A,,Clear,50,2012-11-04 16:55:00
10:15 AM,66.4,29.7,25,30.27,10.0,Calm,Calm,-,N/A,,Clear,0,2012-11-04 17:15:00
10:35 AM,68.0,30.0,24,30.27,10.0,ESE,5.8,-,N/A,,Clear,110,2012-11-04 17:35:00
10:55 AM,68.9,29.8,23,30.27,10.0,East,5.8,-,N/A,,Clear,100,2012-11-04 17:55:00
11:15 AM,69.8,30.0,23,30.26,10.0,ENE,3.5,-,N/A,,Clear,60,2012-11-04 18:15:00
11:35 AM,70.2,29.7,22,30.25,10.0,ENE,4.6,-,N/A,,Clear,60,2012-11-04 18:35:00
11:55 AM,70.7,29.3,21,30.24,10.0,NE,4.6,-,N/A,,Clear,40,2012-11-04 18:55:00
12:15 PM,71.8,29.1,21,30.23,10.0,Calm,Calm,-,N/A,,Clear,0,2012-11-04 19:15:00
12:35 PM,73.2,29.3,20,30.23,10.0,ESE,3.5,-,N/A,,Clear,120,2012-11-04 19:35:00
12:55 PM,74.3,29.3,19,30.22,10.0,WSW,3.5,-,N/A,,Clear,240,2012-11-04 19:55:00
1:15 PM,74.7,28.4,18,30.21,10.0,WSW,4.6,-,N/A,,Clear,240,2012-11-04 20:15:00
1:35 PM,74.7,27.9,18,30.20,10.0,South,5.8,-,N/A,,Clear,180,2012-11-04 20:35:00
1:55 PM,75.7,27.9,17,30.19,10.0,SE,5.8,-,N/A,,Clear,140,2012-11-04 20:55:00
2:15 PM,75.4,27.5,17,30.19,10.0,SSE,5.8,-,N/A,,Clear,160,2012-11-04 21:15:00
2:35 PM,75.6,25.3,16,30.19,10.0,SE,5.8,-,N/A,,Clear,130,2012-11-04 21:35:00
2:55 PM,75.6,26.6,16,30.19,10.0,ESE,5.8,-,N/A,,Clear,120,2012-11-04 21:55:00
3:15 PM,75.2,25.9,16,30.19,10.0,ESE,3.5,-,N/A,,Clear,110,2012-11-04 22:15:00
3:35 PM,75.4,25.5,16,30.18,10.0,Calm,Calm,-,N/A,,Clear,0,2012-11-04 22:35:00
3:55 PM,75.0,25.0,16,30.18,10.0,South,4.6,-,N/A,,Clear,180,2012-11-04 22:55:00
4:15 PM,74.3,25.3,16,30.18,10.0,SSE,5.8,-,N/A,,Clear,150,2012-11-04 23:15:00
4:35 PM,73.6,24.8,16,30.18,10.0,SE,3.5,-,N/A,,Clear,130,2012-11-04 23:35:00
4:55 PM,72.5,25.2,17,30.19,10.0,SSE,3.5,-,N/A,,Clear,150,2012-11-04 23:55:00
5:15 PM,69.8,25.7,19,30.19,10.0,South,4.6,-,N/A,,Clear,170,2012-11-05 00:15:00
5:35 PM,66.9,26.4,22,30.19,10.0,South,5.8,-,N/A,,Clear,180,2012-11-05 00:35:00
5:55 PM,65.3,26.6,23,30.20,10.0,South,6.9,-,N/A,,Clear,170,2012-11-05 00:55:00
6:15 PM,64.8,26.8,24,30.20,10.0,South,5.8,-,N/A,,Clear,180,2012-11-05 01:15:00
6:35 PM,64.4,26.6,24,30.21,10.0,South,5.8,-,N/A,,Clear,190,2012-11-05 01:35:00
6:55 PM,62.1,25.5,25,30.21,10.0,SSW,5.8,-,N/A,,Clear,200,2012-11-05 01:55:00
7:15 PM,57.6,24.4,28,30.21,10.0,SW,3.5,-,N/A,,Clear,230,2012-11-05 02:15:00
7:35 PM,56.7,23.9,28,30.21,10.0,WSW,4.6,-,N/A,,Clear,240,2012-11-05 02:35:00
7:55 PM,55.4,23.7,29,30.21,10.0,West,5.8,-,N/A,,Clear,270,2012-11-05 02:55:00
8:15 PM,54.5,23.0,29,30.21,10.0,West,6.9,-,N/A,,Clear,280,2012-11-05 03:15:00
8:35 PM,54.3,23.0,30,30.21,10.0,West,5.8,-,N/A,,Clear,270,2012-11-05 03:35:00
8:55 PM,54.0,23.4,30,30.23,10.0,West,6.9,-,N/A,,Clear,270,2012-11-05 03:55:00
9:15 PM,54.7,23.5,30,30.23,10.0,West,9.2,-,N/A,,Clear,280,2012-11-05 04:15:00
9:35 PM,54.9,23.0,29,30.23,10.0,West,8.1,-,N/A,,Clear,280,2012-11-05 04:35:00
9:55 PM,54.1,22.6,29,30.23,10.0,WNW,6.9,-,N/A,,Clear,290,2012-11-05 04:55:00
10:15 PM,53.6,21.9,29,30.23,10.0,WNW,5.8,-,N/A,,Clear,290,2012-11-05 05:15:00
10:35 PM,52.2,21.2,30,30.23,10.0,NW,4.6,-,N/A,,Clear,310,2012-11-05 05:35:00
10:55 PM,50.7,21.0,31,30.23,10.0,NNW,4.6,-,N/A,,Clear,340,2012-11-05 05:55:00